Regional Weather Roundup
Issued by NWS Green Bay, WI

Home | Current Version | Previous Version | Text Only | Print | Product List | Glossary On
Versions: 1 2 3 4 5 6 7 8 9 10 11 12 13 14 15 16 17 18 19 20 21 22 23 24 25 26 27 28 29 30 31 32 33 34 35 36 37 38 39 40 41 42 43 44 45 46 47 48 49 50
000
ASUS43 KGRB 201710
RWRGRB

NORTH-CENTRAL AND NORTHEAST WISCONSIN REGIONAL WEATHER ROUNDUP
NATIONAL WEATHER SERVICE GREEN BAY WI
1200 PM CDT WED AUG 20 2014

WIZ005-009-010>012-018-019-201800-
NORTH CENTRAL WISCONSIN

CITY           SKY/WX    TMP DP  RH WIND       PRES   REMARKS
IRONWOOD       CLOUDY    64  61  88 N3        29.88R
MANITOWISH WTR CLOUDY    65  58  79 CALM      29.91R
ARBOR VITAE    CLOUDY    72  62  70 CALM      29.91S
EAGLE RIVER    CLOUDY    66  56  70 CALM      29.91R
LAND O LAKES   CLOUDY    66  58  75 NW6       29.91S
RHINELANDER    CLOUDY    65  58  78 N3        29.92R
PHILLIPS       CLOUDY    64  59  83 CALM      29.92R
ANTIGO         CLOUDY    66  60  81 CALM      29.91S
TOMAHAWK       CLOUDY    65  58  76 CALM      29.92R
MERRILL        CLOUDY    66  61  83 CALM      29.91S
$$

WIZ013-073-201800-
NORTHEAST WISCONSIN

CITY           SKY/WX    TMP DP  RH WIND       PRES   REMARKS
IRON MOUNTAIN  CLOUDY    67  58  72 N6        29.87S
MARINETTE      CLOUDY    68  61  77 W5        29.87R
OCONTO         CLOUDY    67  61  81 CALM      29.88S
$$

WIZ017-030-035>037-045-201800-
CENTRAL WISCONSIN

CITY           SKY/WX    TMP DP  RH WIND       PRES   REMARKS
MEDFORD        CLOUDY    67  60  80 N5        29.91S
WAUSAU         CLOUDY    68  60  75 N5        29.89S
MOSINEE        CLOUDY    64  63  94 CALM      29.92S
MARSHFIELD     CLOUDY    66  60  81 CALM      29.92R
WISC RAPIDS    PTSUNNY   70  61  73 VRB6      29.93R
STEVENS POINT  CLOUDY    64  59  83 W3        29.93R
WAUPACA        CLOUDY    69  62  76 NW5       29.91R
SHAWANO        CLOUDY    68  61  79 N3        29.90S
CLINTONVILLE   CLOUDY    66  59  77 NE6       29.89F
$$

WIZ038-039-048-051-201800-
FOX VALLEY

CITY           SKY/WX    TMP DP  RH WIND       PRES   REMARKS
NWS GREEN BAY  CLOUDY    67  61  81 N6        29.88F
APPLETON       PTSUNNY   70  63  78 NW6       29.89S
OSHKOSH        PTSUNNY   74  65  73 NE6       29.89R
FOND DU LAC    CLOUDY    73  64  73 VRB7      29.89R
$$

WIZ022-050-052-201800-
EAST CENTRAL WISCONSIN

CITY           SKY/WX    TMP DP  RH WIND       PRES   REMARKS
STURGEON BAY   CLOUDY    64  59  82 N3        29.90R
MANITOWOC      CLOUDY    71  62  73 VRB7      29.89R
SHEBOYGAN      CLOUDY    75  63  66 NW8       29.88S
$$

LMZ563-521-522-541>543-201800-
LAKESHORE

STATION/POSITION TIME  TEMP    WIND        PRES    VSBY  WAVE
                       AIR SEA DIR/SP/G                  HT/PER
                 (UTC) (F)     (DEG/KT/KT) (MB)    (MI)  (FT/S)
SHEBOYGAN LKSHOR 1700   65 65   60/  6/  7 1012.0R
KEWAUNEE LKSHORE 1700   66     310/  3/  5 1011.2R
NORTHPORT PIER   1700   64     310/  3/  6 1011.5R
N MID LAKE BUOY  1700   61 62  290/  8/  8 1010.7R         1/ 3
S GREEN BAY BUOY 1700   66     VRB  4      1013.1R
SISTER BAY LKSHO 1600   66     350/  7/  8   N/A
CHAMBERS ISLAND  1700   67      20/  2/  3 1011.9S
MENOMINEE LKSHOR 1700   67      80/  3/  4 1012.3R
$$


USA.gov is the U.S. government's official web portal to all federal, state and local government web resources and services.